Location: Antioch Church
(34.9543°N, 88.5145°W)
Time: 20:07:51
(UTC+00:00)

SKYMED 3 - Pass Details

Date: 11 December 2019
Orbit: 621 x 623 km, 97.9° (Epoch: 29 January)

Event Time Altitude Azimuth Distance (km) Brightness Sun altitude
Rises 11:11:40 0° 167° (SSE) 2,887 8.4 -19.9°
Reaches altitude 10° 11:13:51 10° 167° (SSE) 1,985 7.5 -19.5°
Maximum altitude 11:18:10 90° 235° (SW) 628 4.5 -18.6°
Enters shadow 11:22:10 12° 348° (NNW) 1,849 6.7 -17.8°
